Regional Weather Roundup
Issued by NWS

Home | Current Version | Previous Version | Text Only | Print | Product List | Glossary Off
Versions: 1 2 3 4 5 6 7 8 9 10 11 12 13 14 15 16 17 18 19 20 21 22 23 24 25 26 27 28 29 30 31 32 33 34 35 36 37 38 39 40 41 42 43 44 45 46 47 48 49 50

000
ASUS43 KDTX 130010
RWRMI
MICHIGAN HOURLY REGIONAL WEATHER ROUNDUP
NATIONAL WEATHER SERVICE DETROIT/PONTIAC MI
800 PM EDT SAT JUL 12 2014

NOTE: "FAIR" INDICATES FEW OR NO CLOUDS BELOW 12,000 FEET WITH NO
SIGNIFICANT WEATHER AND/OR OBSTRUCTION TO VISIBILITY.

MIZ047>049-052>055-059>063-066>070-074>076-081>083-130100-
SOUTHEAST LOWER MICHIGAN

CITY           SKY/WX    TMP DP  RH WIND       PRES   REMARKS
ADRIAN         CLOUDY    78  67  68 VRB7      30.01F
6HR MIN TEMP:  78; 6HR MAX TEMP:  87; 6HR PCP: TRACE;

ALMA           CLOUDY    74  69  86 SW6       29.95F
ANN ARBOR      CLOUDY    79  66  64 SW14G21   30.00S
BAD AXE        RAIN      71  67  89 S6        29.97F
6HR MIN TEMP:  71; 6HR MAX TEMP:  83;

CARO           CLOUDY    76  72  87 SE5       29.94F
DETROIT CITY   CLOUDY    83  62  49 S8        29.98F
6HR MIN TEMP:  83; 6HR MAX TEMP:  86;

DETROIT        CLOUDY    80  66  62 S8        29.99F
6HR MIN TEMP:  80; 6HR MAX TEMP:  86; 6HR PCP: TRACE;

FLINT          CLOUDY    80  67  64 SW7       29.96F
6HR MIN TEMP:  80; 6HR MAX TEMP:  85; 6HR PCP: TRACE;

GROSSE ILE     CLOUDY    79  70  73 S10G16    29.98F
HILLSDALE      PTSUNNY   76  72  87 SW3       30.03F
6HR MIN TEMP:  75; 6HR MAX TEMP:  83;

HOWELL         CLOUDY    77  69  76 SW14      29.99S
6HR MIN TEMP:  77; 6HR MAX TEMP:  82;


CITY           SKY/WX    TMP DP  RH WIND       PRES   REMARKS
JACKSON        CLOUDY    75  67  76 SW5       30.00F
6HR MIN TEMP:  75; 6HR MAX TEMP:  84;

LAMBERTVILLE   CLOUDY    79  70  73 SW3       30.00F
LANSING        CLOUDY    76  67  73 SW13      29.98F
6HR MIN TEMP:  76; 6HR MAX TEMP:  83; 6HR PCP: TRACE;

LAPEER         CLOUDY    79  64  59 S6        29.97F
MASON          CLOUDY    75  67  76 SW7       29.99F
MONROE         CLOUDY    82  66  57 SW13      29.98F
PONTIAC        LGT RAIN  80  63  55 S10       29.97F
6HR MIN TEMP:  80; 6HR MAX TEMP:  83; 6HR PCP: TRACE;

PORT HOPE        N/A     74  65  73 S8        29.96R
6HR MIN TEMP:  74; 6HR MAX TEMP:  85; 6HR PCP:  0.01;

PORT HURON     CLOUDY    77  64  65 S7        29.99S
TRI CITIES     LGT RAIN  76  70  82 SW10      29.94F
6HR MIN TEMP:  76; 6HR MAX TEMP:  83; 6HR PCP:  0.06;

TROY           CLOUDY    81  62  53 S7        29.99F
SAGINAW HB     RAIN      77  68  73 S7        29.93F
$$
MIZ043>046-050>051-056>058-064>065-071>073-077>080-130100-
SOUTHWEST LOWER MICHIGAN

CITY           SKY/WX    TMP DP  RH WIND       PRES   REMARKS
BATTLE CREEK   CLOUDY    75  68  78 S8        30.01F
6HR MIN TEMP:  75; 6HR MAX TEMP:  82; 6HR PCP: TRACE;

BENTON HARBOR  CLOUDY    75  70  84 SE5       29.96S
6HR MIN TEMP:  72; 6HR MAX TEMP:  75; 6HR PCP:  0.01;

BIG RAPIDS     LGT RAIN  72  71  99 SW7       29.93F
6HR MIN TEMP:  72; 6HR MAX TEMP:  76;

COLDWATER      PTSUNNY   76  70  82 SW3       30.02S
6HR MIN TEMP:  75; 6HR MAX TEMP:  81;

FREMONT        DRIZZLE   70  70 100 SW8       29.94S
HOLLAND        CLOUDY    76  70  82 S8        29.96F
6HR MIN TEMP:  74; 6HR MAX TEMP:  77; 6HR PCP:  0.01;

GRAND RAPIDS   LGT RAIN  75  70  84 S10       29.96F
6HR MIN TEMP:  75; 6HR MAX TEMP:  81; 6HR PCP: TRACE;

IONIA          CLOUDY    75  67  75 SW12G17   29.96F
KALAMAZOO      CLOUDY    75  69  81 S10       29.99F
6HR MIN TEMP:  75; 6HR MAX TEMP:  80; 6HR PCP: TRACE;

LUDINGTON      RAIN      69  68  96 S10G18    29.92S
6HR MIN TEMP:  69; 6HR MAX TEMP:  77;

MARSHALL       CLOUDY    74  68  81 SW6       30.00S
MOUNT PLEASANT CLOUDY    73  71  95 CALM      29.93F FOG
6HR MIN TEMP:  73; 6HR MAX TEMP:  80; 6HR PCP:  0.36;

MUSKEGON       CLOUDY    73  68  84 S10       29.94F
6HR MIN TEMP:  72; 6HR MAX TEMP:  76; 6HR PCP: TRACE;

SOUTH HAVEN    CLOUDY    74  72  91 CALM      29.97S
$$
MIZ016>042-130100-
NORTHERN LOWER MICHIGAN

CITY           SKY/WX    TMP DP  RH WIND       PRES   REMARKS
ALPENA         TSTM      72  68  87 S3        29.91F
6HR MIN TEMP:  72; 6HR MAX TEMP:  81; 6HR PCP:  0.06;

BEAVER ISLAND  CLOUDY    65  64  99 SW8       29.90F FOG
6HR MIN TEMP:  64; 6HR MAX TEMP:  71;

BELLAIRE       CLOUDY    76  67  72 S5        29.88F
6HR MIN TEMP:  76; 6HR MAX TEMP:  79;

CADILLAC       LGT RAIN  69  69  98 S7        29.93F
CHARLEVOIX     CLOUDY    68  64  87 W10       29.93F
6HR MIN TEMP:  65; 6HR MAX TEMP:  78;

FRANKFORT      FOG       68  65  91 SW7       29.90F VSB 3/4
GAYLORD        CLOUDY    73  65  75 SW13      29.92F
6HR MIN TEMP:  73; 6HR MAX TEMP:  77;

GRAYLING       CLOUDY    70  70  99 CALM      29.94F
6HR MIN TEMP:  69; 6HR MAX TEMP:  78;

HARBOR SPRINGS CLOUDY    65  64  96 S3        29.88F FOG
HOUGHTON LAKE  CLOUDY    72  68  87 S9        29.94F
6HR MIN TEMP:  72; 6HR MAX TEMP:  78; 6HR PCP:  0.03;

MANISTEE       CLOUDY    72  66  83 SW5       29.92S
OSCODA         CLOUDY    76  63  62 S7        29.92F
PELLSTON       CLOUDY    75  66  73 CALM      29.89F
6HR MIN TEMP:  75; 6HR MAX TEMP:  79;

ROGERS CITY    CLOUDY    71  70  99 CALM      29.91F FOG
TRAVERSE CITY  LGT RAIN  73  69  87 SW6       29.88F FOG
6HR MIN TEMP:  75; 6HR MAX TEMP:  81;

$$
MIZ007>008-015-130100-
EASTERN UPPER MICHIGAN

CITY           SKY/WX    TMP DP  RH WIND       PRES   REMARKS
KINROSS        CLOUDY    73  64  73 S3        29.90F
6HR MIN TEMP:  73; 6HR MAX TEMP:  77;

MACKINAC ISLAN CLOUDY    68  61  78 CALM      29.90S
6HR MIN TEMP:  68; 6HR MAX TEMP:  72;

NEWBERRY       CLOUDY    69  63  81 SW9G16    29.89S
S. S. MARIE    CLOUDY    74  64  71 S5        29.88F
6HR MIN TEMP:  74; 6HR MAX TEMP:  77;

MUNISING         N/A     57  54  89 CALM      29.87F
6HR MIN TEMP:  56; 6HR MAX TEMP:  70;

$$
MIZ004>006-011>014-085-130100-
CENTRAL UPPER MICHIGAN

CITY           SKY/WX    TMP DP  RH WIND       PRES   REMARKS
MANISTIQUE     CLOUDY    60  58  93 S5        29.87F
ESCANABA       CLOUDY    70  63  78 W5        29.88R
6HR MIN TEMP:  70; 6HR MAX TEMP:  75;

MENOMINEE      CLOUDY    77  68  73 W5        29.87S
6HR MIN TEMP:  75; 6HR MAX TEMP:  81;

SAWYER-GWINN   TSTM      64  63  94 NE5       29.89F
$$
MIZ001>003-009>011-084-130100-
WESTERN UPPER MICHIGAN

CITY           SKY/WX    TMP DP  RH WIND       PRES   REMARKS
IRON MOUNTAIN  CLOUDY    69  61  75 SW9       29.90R
6HR MIN TEMP:  69; 6HR MAX TEMP:  83; 6HR PCP:  0.10;

HOUGHTON       CLOUDY    64  57  78 CALM      29.88S
6HR MIN TEMP:  64; 6HR MAX TEMP:  74;

COPPER HARBOR    N/A     56  52  86 CALM      29.85F
6HR MIN TEMP:  55; 6HR MAX TEMP:  64;

IRONWOOD       CLOUDY    66  57  72 S5        29.86F
6HR MIN TEMP:  66; 6HR MAX TEMP:  73;

$$

ABBREVIATIONS USED IN REMARKS
   TC - TEMPERATURE IN CELSIUS
  WCI - WIND CHILL INDEX
   HX - HEAT INDEX
  VSB - VISIBILITY



USA.gov is the U.S. government's official web portal to all federal, state and local government web resources and services.